Location: Oshawa
(43.9000°N, 78.8670°W)
Time: 19:15:44
(UTC-05:00)

Transit 2A Rocket - Visible Passes

Search period start: 10 December 2016 00:00
Search period end: 20 December 2016 00:00
Orbit: 591 x 914 km, 66.7° (Epoch: 09 December)

Date Brightness Start Highest point End Pass type
(mag) Time Alt. Az. Time Alt. Az. Time Alt. Az.
10 Dec 7.5 04:10:55 11° SE 04:10:55 11° SE 04:11:09 10° SE visible
10 Dec 6.4 05:50:54 16° SW 05:50:54 16° SW 05:52:21 10° SSW visible
10 Dec 6.3 18:37:58 10° SSE 18:41:45 27° SE 18:41:45 27° SE visible
10 Dec 7.3 20:19:45 10° SW 20:21:43 21° WSW 20:21:43 21° WSW visible
11 Dec 6.9 05:10:33 13° S 05:10:33 13° S 05:11:02 10° S visible
11 Dec 6.6 17:57:06 10° SE 18:00:45 17° ESE 18:01:18 17° E visible
11 Dec 5.9 19:37:05 10° SW 19:41:17 48° SW 19:41:17 48° SW visible
12 Dec 5.0 18:54:46 10° SSW 19:00:31 67° ESE 19:00:46 66° ESE visible
12 Dec 7.6 20:39:01 10° W 20:40:44 17° W 20:40:44 17° W visible
13 Dec 5.6 18:12:54 10° S 18:18:16 40° ESE 18:20:10 30° ENE visible
13 Dec 6.5 19:55:42 10° WSW 20:00:08 34° WNW 20:00:08 34° WNW visible
14 Dec 6.3 17:31:31 10° SSE 17:36:05 24° ESE 17:39:30 14° ENE visible
14 Dec 5.6 19:12:47 10° SW 19:18:25 56° NW 19:19:27 48° NNW visible
15 Dec 5.0 18:30:13 10° SSW 18:36:00 89° WNW 18:38:42 31° NNE visible
15 Dec 7.3 20:15:26 10° W 20:18:39 18° NW 20:18:39 18° NW visible
16 Dec 5.3 17:48:03 10° SSW 17:53:41 56° ESE 17:57:52 16° NE visible
16 Dec 6.7 19:31:51 10° WSW 19:36:34 27° NW 19:37:49 25° NNW visible
17 Dec 5.9 17:06:19 10° S 17:11:26 34° ESE 17:16:14 10° NE visible
17 Dec 6.1 18:48:39 10° WSW 18:53:59 41° NW 18:56:55 22° N visible
18 Dec 5.4 18:05:50 10° SW 18:11:31 65° WNW 18:15:58 14° NNE visible
18 Dec 7.4 19:52:08 10° WNW 19:55:02 14° NW 19:55:54 14° NNW visible
19 Dec 5.1 17:23:24 10° SSW 17:29:08 79° ESE 17:34:25 10° NE visible
19 Dec 7.1 19:08:10 10° W 19:12:15 21° NW 19:14:53 15° N visible
